This is the latest recevied weather packets stored in our database for station/object KL7AF. If no packets are shown the sender has not sent any weather packets the latest 10 day(s).
| Time | Temp. | Humidity | Pressure | Rain* | Wind** | Luminosity | Snow |
|---|---|---|---|---|---|---|---|
| 1788624899 | 33.33° C | 64% | 1016.3 hPa | 0 mm | - | 198 W/m² | - |
| 1788624598 | 33.89° C | 63% | 1016.3 hPa | 0 mm | - | 331 W/m² | - |
| 1788624295 | 33.89° C | 62% | 1016.3 hPa | 0 mm | - | 126 W/m² | - |
| 1788623994 | 34.44° C | 62% | 1016.4 hPa | 0 mm | - | 71 W/m² | - |
| 1788623692 | 34.44° C | 62% | 1016.3 hPa | 0 mm | - | 170 W/m² | - |
| 1788623392 | 33.89° C | 64% | 1016.4 hPa | 0 mm | - | 215 W/m² | - |
| 1788623091 | 33.89° C | 65% | 1016.4 hPa | 0 mm | - | 568 W/m² | - |
| 1788622790 | 33.33° C | 65% | 1016.3 hPa | 0 mm | - | 719 W/m² | - |
| 1788622490 | 33.33° C | 66% | 1016.3 hPa | 0 mm | - | 706 W/m² | - |
| 1788622189 | 33.33° C | 66% | 1016.3 hPa | 0 mm | - | 692 W/m² | - |
| 1788621888 | 32.78° C | 67% | 1016.2 hPa | 0 mm | - | 683 W/m² | - |
| 1788621587 | 32.22° C | 68% | 1016.2 hPa | 0 mm | - | 672 W/m² | - |
| 1788621287 | 31.67° C | 70% | 1016.2 hPa | 0 mm | - | 659 W/m² | - |
| 1788620986 | 31.11° C | 72% | 1016.1 hPa | 0 mm | - | 641 W/m² | - |
| 1788620711 | 30° C | 74% | 1016 hPa | 0 mm | - | 624 W/m² | - |
| 1788620385 | 29.44° C | 77% | 1015.9 hPa | 0 mm | - | 606 W/m² | - |
| 1788620084 | 28.89° C | 78% | 1015.9 hPa | 0 mm | - | 591 W/m² | - |
| 1788619783 | 28.89° C | 80% | 1015.8 hPa | 0 mm | - | 574 W/m² | - |
| 1788619482 | 28.33° C | 80% | 1015.8 hPa | 0 mm | - | 56 W/m² | - |
| 1788619181 | 28.33° C | 83% | 1015.8 hPa | 0 mm | - | 49 W/m² | - |
| 1788618881 | 27.78° C | 83% | 1015.8 hPa | 0 mm | - | 45 W/m² | - |
| 1788618580 | 27.78° C | 84% | 1015.8 hPa | 0 mm | - | 42 W/m² | - |
| 1788618279 | 27.78° C | 86% | 1015.8 hPa | 0 mm | - | 41 W/m² | - |
| 1788617978 | 27.78° C | 87% | 1015.8 hPa | 0 mm | - | 41 W/m² | - |
| 1788617677 | 27.22° C | 87% | 1015.8 hPa | 0 mm | - | 38 W/m² | - |
* Rain latest hour (hover to see other rain measurements)
** Current wind speed in m/s (hover to see current wind gust speed)